Wind_Speed
35 34 35 31 28 26 28 28 31 32 35 38 41 42 40 40 41 43 43 40 39 37 32 27 21 13 13 14 10 9 11 12 15 17 18 23 22 17 15 17 17 24 21 17 17 18 22 17 7 12 17 19 31 55
34 32 34 30 28 26 28 29 30 32 35 37 40 42 40 42 41 43 44 43 40 37 33 26 22 14 12 13 11 9 13 17 18 19 20 20 21 20 18 16 21 20 16 16 17 18 9 6 3 11 22 24 35 48
34 33 34 30 29 28 29 29 30 32 35 37 39 41 39 41 42 43 43 43 41 37 37 29 24 17 12 13 13 10 9 12 16 19 20 20 20 19 20 21 18 19 15 14 14 6 7 2 6 22 26 30 41 55
34 33 34 30 31 30 30 31 30 33 35 37 39 41 40 41 42 43 43 42 41 38 33 35 24 19 13 13 14 12 9 10 11 14 18 20 18 18 21 23 20 22 15 11 10 6 11 7 18 29 29 34 43 53
33 35 32 31 33 32 31 33 32 34 36 37 38 40 40 42 42 43 43 41 39 38 33 31 24 16 13 13 13 13 8 9 12 14 15 13 13 16 18 19 17 23 16 7 9 11 19 13 20 30 34 36 42 51
33 36 32 33 36 34 33 33 34 35 36 38 39 41 41 42 43 42 42 40 39 37 33 29 25 16 13 12 12 12 9 10 11 12 12 11 11 14 16 15 21 20 14 7 8 9 15 12 16 35 41 43 46 57
35 37 33 35 37 35 34 34 35 36 38 39 42 42 43 44 44 42 42 42 42 37 31 26 23 17 11 11 12 11 10 11 8 10 11 11 8 12 14 13 21 19 14 8 8 11 19 19 18 30 34 44 49 58
37 37 34 35 37 36 35 35 36 37 39 42 44 44 44 44 44 45 44 44 40 35 29 25 21 17 12 10 11 10 10 9 9 10 11 8 5 8 9 15 18 19 14 15 9 9 13 17 25 30 30 31 43 53
38 37 36 35 36 36 35 35 37 40 43 45 46 46 45 46 48 48 47 41 35 31 29 22 20 16 11 9 11 8 6 6 8 8 6 4 2 4 8 12 15 17 17 12 16 15 16 16 18 27 36 31 29 42
37 38 36 35 36 35 34 35 38 43 46 48 49 48 50 52 53 51 45 38 30 29 26 19 18 15 11 6 6 4 6 7 5 5 5 4 3 4 6 9 13 15 15 10 12 20 13 20 14 27 28 33 34 30
37 39 34 35 35 35 36 38 42 48 50 51 52 54 56 57 56 53 47 37 30 27 23 18 15 13 9 6 4 2 5 4 2 3 4 6 7 6 6 8 10 11 12 11 9 18 19 15 20 23 25 27 27 28
40 35 34 35 35 37 39 43 48 52 52 53 57 59 60 59 59 52 43 33 28 25 19 15 14 12 11 9 8 1 4 3 1 2 2 3 7 13 9 8 6 8 8 7 7 10 16 16 22 28 25 29 32 30
37 34 35 36 37 40 44 48 51 53 55 59 62 64 65 61 51 42 34 26 23 23 18 15 15 14 13 12 14 14 4 1 3 4 2 2 8 11 12 11 6 4 5 2 2 4 7 15 14 18 22 25 27 30
34 34 35 37 40 43 48 52 53 56 60 64 66 68 62 53 44 39 33 25 24 24 22 18 17 15 14 10 12 13 14 6 2 5 6 5 5 7 10 12 9 4 0 3 3 2 3 9 13 13 18 19 27 31
34 34 36 40 43 47 51 53 56 60 64 66 68 63 56 49 44 39 34 30 31 29 26 21 20 19 17 13 16 11 6 9 9 8 7 7 5 3 5 12 12 9 7 4 5 7 7 7 8 13 15 16 16 16
33 36 39 43 46 49 52 55 59 63 66 66 63 58 54 48 43 37 34 33 34 31 30 27 24 24 25 25 24 18 14 14 13 11 11 8 5 3 4 6 11 13 11 7 5 4 9 12 12 13 15 18 17 17
35 38 42 45 47 50 54 58 61 64 65 65 60 59 58 55 45 36 34 33 34 31 33 31 32 32 30 27 21 20 16 15 16 15 13 10 7 5 5 4 6 12 14 11 9 7 6 5 16 14 15 15 20 21
36 40 43 45 47 51 56 59 61 62 62 61 60 61 60 53 41 31 29 28 31 37 36 36 36 32 26 20 22 22 22 21 15 13 16 12 9 7 5 2 5 7 11 13 13 13 13 10 8 13 21 20 18 20
38 41 43 45 48 53 56 59 59 60 60 60 61 58 48 36 28 22 21 25 30 36 45 38 36 34 33 24 23 23 19 19 17 21 15 14 11 10 7 6 7 7 7 6 9 10 13 14 14 12 18 25 21 19
39 41 43 46 49 52 56 55 55 56 56 57 51 39 32 24 17 13 10 12 17 28 34 37 38 31 31 31 31 28 22 22 35 27 22 20 16 12 10 8 7 7 8 11 9 5 9 13 13 13 18 21 22 20
38 41 43 46 49 51 52 51 51 51 52 45 34 25 23 19 13 10 6 3 6 11 21 23 28 27 28 27 28 29 27 25 27 26 24 25 22 18 14 11 11 9 8 6 8 6 7 10 12 14 14 16 19 22
39 41 43 46 48 46 44 46 46 46 41 29 20 17 18 16 14 13 12 8 3 3 9 15 21 26 25 24 23 27 28 24 25 26 27 28 24 24 20 16 15 12 12 11 10 9 5 5 4 7 8 11 15 18
39 40 41 43 41 39 38 39 40 37 26 14 19 19 23 23 21 18 15 10 8 7 4 9 15 19 22 23 22 24 25 26 24 24 26 29 30 29 29 26 20 15 14 15 15 13 11 11 8 6 7 10 13 16
38 37 38 36 34 30 31 33 33 29 15 5 11 15 15 12 13 13 6 4 8 10 4 6 12 17 21 24 27 28 29 29 28 27 26 29 31 31 33 30 26 21 20 20 18 16 13 12 15 14 12 9 12 13
36 34 33 30 27 24 24 27 25 20 9 2 11 12 14 13 8 6 1 12 13 8 9 6 2 8 17 17 21 26 29 31 31 30 29 27 29 33 33 32 28 25 23 20 18 17 15 13 14 16 16 14 13 12
33 33 28 25 22 18 18 20 21 16 4 5 1 6 8 10 12 9 9 11 10 10 9 6 3 3 2 8 12 17 20 24 29 32 32 31 29 30 31 32 33 29 26 23 21 18 16 18 19 19 18 16 16 15
32 28 24 21 18 15 14 15 16 18 10 10 9 7 9 11 13 13 12 13 15 12 11 6 2 3 1 1 2 8 12 16 21 27 30 32 32 29 29 30 30 28 26 25 25 23 22 23 22 21 20 22 17 14
27 23 21 19 15 15 14 13 13 14 15 15 15 11 14 14 16 17 14 13 12 10 8 5 6 4 4 2 4 4 7 11 16 20 24 28 30 30 28 28 29 30 30 28 27 27 27 24 20 20 21 23 23 22
24 23 21 18 17 16 15 14 12 11 11 12 20 16 14 15 17 19 16 12 11 9 8 7 2 1 4 7 6 5 9 11 13 17 19 20 25 29 29 27 28 29 29 28 28 28 26 26 24 22 28 23 28 28
24 23 21 20 18 17 15 15 15 13 12 13 12 15 22 20 19 19 20 18 16 15 16 15 13 11 9 7 6 6 6 6 8 13 18 22 26 27 27 29 28 30 29 31 30 29 31 32 29 32 31 31 28 31
25 24 23 21 19 17 15 14 13 15 15 15 15 14 13 13 23 26 25 25 25 24 24 25 24 24 23 21 19 16 10 7 7 10 12 17 24 24 26 29 29 32 28 36 37 34 34 31 31 33 35 34 33 31
27 26 24 23 20 19 16 13 12 13 14 14 15 17 17 14 13 14 17 24 26 27 27 28 27 23 21 20 20 18 17 17 18 11 10 12 16 22 26 29 31 39 38 23 27 27 35 36 35 34 32 31 31 31
30 28 26 24 23 21 19 18 18 17 17 16 16 16 17 20 20 19 17 15 13 12 10 10 10 10 11 12 14 15 17 19 18 18 16 13 14 16 22 25 24 33 36 30 29 37 41 38 38 37 37 35 30 25
Wind_Direction
322 324 326 327 327 330 334 344 344 344 345 347 347 348 351 353 353 354 356 355 355 349 347 339 331 338 337 340 324 277 291 307 320 324 330 343 2 14 8 10 21 15 17 14 20 354 337 322 275 221 201 178 188 183
319 320 321 324 321 322 326 332 336 338 340 341 343 344 343 347 350 354 355 353 354 353 347 338 329 327 326 332 321 310 280 291 302 314 328 330 339 348 340 352 14 354 347 356 5 358 340 305 213 186 174 164 178 183
317 318 318 322 320 316 318 322 327 332 334 335 337 340 339 342 344 348 352 352 353 352 345 341 332 323 320 326 327 294 302 305 303 314 328 326 323 332 340 346 357 354 345 350 1 31 74 47 128 151 167 153 172 178
315 316 316 320 322 314 313 315 320 325 328 331 333 336 335 337 339 342 345 349 350 350 347 337 332 319 318 323 326 313 285 299 322 325 326 324 313 321 337 343 344 2 5 4 11 94 97 93 136 146 155 156 171 176
313 315 314 316 321 316 310 312 315 320 324 328 330 332 333 334 334 337 339 344 348 344 344 340 337 323 318 324 327 320 294 303 300 304 319 327 311 315 330 342 337 1 22 43 29 86 71 131 144 150 138 152 167 172
311 316 313 315 319 315 311 309 312 317 322 325 327 329 331 330 331 333 333 338 341 338 337 340 337 326 321 326 326 322 291 294 301 300 309 329 317 315 328 344 342 355 23 28 28 66 106 128 117 141 143 152 165 173
310 312 311 313 317 313 310 307 310 316 320 322 324 326 328 326 327 329 329 332 334 331 328 331 334 319 315 321 326 326 306 284 291 302 304 324 314 324 333 339 342 347 20 95 90 105 137 146 135 143 149 159 169 178
308 310 309 311 315 312 309 307 310 315 318 321 322 323 323 323 323 325 325 326 324 320 318 321 324 318 310 317 326 323 322 309 294 286 291 297 309 326 342 350 348 347 21 66 112 106 91 112 150 154 140 152 175 183
305 311 309 310 312 310 307 307 311 314 318 321 321 320 321 321 320 320 320 322 316 310 306 307 307 306 302 312 320 324 331 331 318 310 270 262 308 321 332 353 355 3 2 45 123 113 90 83 137 153 158 161 176 182
304 309 307 309 310 309 307 308 311 315 319 320 318 319 320 320 318 318 317 316 307 297 297 294 295 291 288 296 313 338 352 350 331 324 263 250 238 252 312 342 359 11 357 37 125 124 115 113 153 147 151 166 167 160
302 307 305 306 307 306 306 309 313 317 319 319 319 320 319 318 317 316 313 310 298 295 290 287 284 281 271 262 278 300 337 343 323 296 289 252 253 251 271 305 343 359 11 10 103 120 140 139 131 158 164 161 175 184
304 304 303 304 305 306 308 310 314 317 318 318 318 318 318 317 315 312 309 302 292 288 284 278 272 267 255 247 236 287 33 4 253 331 334 272 250 254 246 262 306 343 1 19 1 112 121 122 141 156 155 175 179 181
301 302 302 303 306 308 310 313 316 317 318 318 319 318 318 319 318 315 305 289 281 275 271 265 263 256 253 254 244 263 223 66 22 356 9 273 276 274 249 238 251 318 336 56 3 342 112 127 133 139 148 151 175 189
299 301 303 305 307 309 312 315 317 319 319 319 319 319 319 322 319 309 295 275 263 258 256 251 247 246 243 257 259 235 217 221 252 343 357 320 317 291 253 227 220 212 117 69 179 229 224 156 154 158 157 154 158 164
299 302 303 305 308 311 314 316 319 320 321 321 320 321 321 320 314 307 293 266 252 245 243 236 234 227 221 227 237 236 232 227 245 253 293 328 313 305 275 232 213 209 178 122 113 187 214 223 196 180 170 172 176 183
301 302 305 307 310 314 316 319 321 322 322 320 320 321 322 316 310 300 284 265 248 239 233 230 227 226 232 236 245 252 249 231 230 248 268 283 292 280 268 260 233 227 222 205 205 172 198 209 216 207 185 183 186 190
300 303 306 309 312 316 320 322 323 323 322 321 323 323 320 314 304 289 276 265 244 230 233 218 222 225 228 237 236 239 238 240 245 246 246 253 260 257 249 281 248 230 223 230 215 236 236 212 221 226 224 202 196 200
301 305 307 311 316 320 323 324 323 323 322 326 327 323 318 312 303 284 264 249 240 224 218 217 219 220 221 228 225 227 227 227 228 225 222 217 241 244 218 245 291 268 237 235 233 241 245 244 247 230 231 229 226 211
303 306 309 314 319 323 324 324 324 324 328 330 327 325 323 320 310 292 265 248 230 218 218 224 223 215 219 217 217 222 221 208 201 213 204 204 224 246 239 213 215 244 270 214 201 207 216 220 222 231 226 225 227 231
304 307 312 318 321 323 325 325 327 329 333 332 333 336 341 344 332 316 281 242 228 216 216 224 224 212 221 226 227 226 214 211 208 206 200 206 220 218 231 226 218 226 227 223 220 218 212 204 205 207 215 207 211 221
305 310 316 320 322 325 327 330 330 335 337 340 346 354 3 12 21 33 36 144 196 215 219 226 221 214 215 219 225 217 212 217 222 228 210 206 209 209 216 233 234 231 230 241 225 210 213 206 204 204 196 200 211 218
307 313 318 321 323 327 328 330 335 341 346 353 357 14 28 39 56 66 67 75 102 210 234 226 219 215 218 225 223 213 214 217 216 218 218 216 210 207 219 226 236 239 233 237 242 236 227 222 224 231 228 221 214 218
309 314 319 321 323 326 332 333 341 348 358 25 49 65 72 68 70 82 98 98 96 2 278 225 219 217 219 222 226 222 220 222 219 216 216 215 216 211 209 225 235 236 238 243 241 243 242 231 221 232 232 238 231 226
310 315 318 320 321 329 331 336 345 359 3 42 61 52 46 46 61 61 82 98 3 17 25 219 221 226 229 231 230 228 225 226 226 221 218 215 214 219 215 224 228 236 241 247 248 237 228 234 231 236 237 241 235 229
309 314 315 316 319 326 331 338 356 4 357 163 55 33 13 8 16 60 22 1 6 28 40 38 354 234 228 233 233 231 228 226 226 226 224 222 221 219 222 223 225 235 242 240 239 226 228 242 245 237 233 244 248 239
305 309 309 311 315 319 326 342 4 5 244 180 61 8 356 350 358 3 353 355 14 33 32 35 36 39 248 234 233 230 227 226 227 228 227 223 224 225 225 227 229 236 235 235 228 223 227 241 249 244 235 238 239 232
302 303 302 303 304 305 314 334 354 3 332 269 268 288 294 312 320 337 353 357 5 5 10 33 52 194 201 32 251 230 219 219 222 225 227 223 224 227 227 227 227 226 230 233 230 231 233 242 246 239 225 237 234 240
295 291 291 290 284 289 302 320 335 348 326 299 285 276 270 278 299 314 317 332 336 350 11 18 20 53 200 244 211 240 240 214 215 222 223 222 223 225 228 226 225 224 223 230 232 235 238 241 240 238 231 236 238 245
282 281 281 279 276 280 288 299 310 315 323 304 271 267 267 275 276 280 291 303 312 316 328 339 324 14 43 53 20 291 255 247 232 221 220 226 225 224 225 226 224 223 224 228 232 233 235 231 238 236 232 252 256 247
273 272 271 272 276 278 280 285 290 294 291 294 306 281 258 255 259 263 271 278 281 285 291 297 306 311 313 327 338 337 328 274 252 235 224 214 226 226 225 226 227 226 233 233 236 231 240 235 225 237 241 236 243 250
261 263 265 268 274 280 288 286 280 285 284 279 283 296 309 290 255 256 263 269 273 276 279 281 286 291 291 292 293 294 288 272 262 243 239 232 228 228 226 224 223 221 225 236 227 230 232 236 240 241 241 240 239 246
253 258 263 268 272 278 282 281 289 289 283 287 285 280 279 285 290 292 280 273 276 278 279 282 284 283 279 274 274 276 273 264 261 260 252 250 240 234 232 224 221 220 227 233 244 245 240 234 236 238 243 243 242 244
251 255 260 267 274 274 275 278 287 294 293 292 290 289 286 278 272 272 277 280 282 281 287 291 295 293 287 274 258 246 237 237 240 247 247 248 246 242 236 234 237 236 237 232 250 230 226 234 239 241 246 249 244 249
Height
5747 5741 5736 5732 5728 5723 5719 5713 5708 5702 5696 5690 5684 5677 5670 5664 5657 5649 5642 5634 5628 5621 5615 5609 5605 5603 5600 5598 5595 5594 5592 5589 5586 5582 5579 5575 5570 5565 5561 5555 5550 5545 5540 5536 5531 5529 5526 5522 5522 5525 5529 5536 5543 5554
5740 5735 5730 5726 5722 5718 5714 5709 5703 5698 5692 5686 5680 5674 5667 5660 5654 5647 5640 5632 5625 5617 5613 5607 5603 5600 5598 5595 5593 5591 5589 5585 5583 5580 5578 5573 5569 5565 5560 5557 5552 5547 5542 5538 5534 5530 5524 5521 5518 5519 5523 5534 5543 5555
5734 5729 5724 5720 5716 5712 5708 5703 5698 5693 5688 5682 5676 5670 5663 5657 5651 5645 5638 5630 5623 5617 5610 5604 5600 5597 5595 5592 5590 5588 5586 5583 5580 5578 5575 5571 5567 5564 5559 5555 5551 5546 5541 5537 5534 5530 5525 5522 5518 5521 5526 5537 5548 5558
5728 5723 5717 5713 5710 5706 5701 5696 5692 5688 5682 5677 5672 5666 5659 5653 5647 5641 5634 5628 5621 5614 5608 5601 5597 5593 5591 5589 5587 5585 5584 5581 5579 5576 5573 5569 5565 5562 5558 5553 5550 5547 5541 5537 5534 5531 5528 5524 5523 5526 5531 5542 5551 5561
5721 5716 5710 5706 5703 5699 5694 5690 5686 5682 5676 5671 5666 5660 5654 5648 5642 5636 5630 5625 5618 5613 5607 5600 5594 5590 5589 5587 5585 5582 5581 5579 5577 5575 5572 5568 5565 5563 5559 5555 5551 5547 5542 5538 5534 5533 5531 5531 5530 5532 5537 5548 5558 5568
5713 5709 5703 5699 5695 5691 5687 5683 5679 5675 5670 5665 5660 5655 5649 5643 5636 5632 5626 5621 5615 5609 5603 5598 5593 5588 5586 5585 5582 5580 5579 5577 5575 5572 5570 5566 5564 5563 5559 5556 5552 5548 5543 5539 5537 5535 5537 5538 5540 5541 5547 5554 5564 5571
5704 5701 5696 5692 5688 5684 5680 5676 5671 5667 5663 5658 5653 5648 5642 5636 5630 5625 5620 5615 5609 5604 5599 5595 5590 5586 5584 5582 5580 5578 5576 5575 5573 5571 5568 5566 5564 5562 5559 5557 5552 5548 5544 5541 5540 5540 5542 5544 5548 5550 5554 5560 5567 5575
5696 5692 5688 5684 5680 5676 5672 5668 5664 5660 5655 5650 5645 5640 5634 5628 5622 5617 5612 5607 5602 5597 5593 5590 5586 5583 5581 5579 5578 5575 5574 5572 5570 5568 5566 5565 5563 5562 5560 5558 5553 5548 5545 5543 5542 5542 5543 5545 5550 5553 5559 5566 5573 5577
5688 5684 5679 5676 5671 5668 5664 5660 5656 5651 5646 5641 5636 5630 5625 5619 5613 5608 5602 5598 5593 5591 5585 5584 5581 5579 5577 5576 5574 5573 5571 5570 5568 5565 5563 5564 5563 5563 5561 5558 5555 5550 5546 5544 5546 5545 5546 5548 5551 5556 5563 5568 5573 5580
5679 5675 5670 5667 5663 5659 5656 5652 5646 5642 5637 5631 5625 5620 5615 5609 5601 5597 5591 5587 5584 5580 5577 5577 5575 5574 5573 5572 5571 5570 5568 5567 5566 5565 5563 5563 5563 5563 5561 5559 5556 5553 5550 5548 5547 5549 5549 5554 5555 5560 5564 5568 5576 5585
5669 5665 5661 5658 5654 5650 5647 5643 5638 5632 5626 5620 5613 5608 5601 5594 5588 5582 5577 5575 5572 5571 5569 5568 5568 5568 5568 5569 5569 5568 5566 5565 5564 5564 5562 5562 5562 5562 5560 5559 5557 5555 5553 5551 5550 5552 5554 5555 5558 5563 5568 5572 5578 5584
5660 5655 5652 5648 5644 5641 5637 5632 5627 5621 5616 5609 5602 5594 5588 5579 5573 5568 5563 5561 5561 5561 5561 5561 5562 5563 5564 5565 5565 5566 5564 5563 5563 5562 5561 5561 5560 5559 5560 5559 5558 5556 5555 5555 5553 5553 5554 5556 5560 5565 5569 5574 5579 5583
5650 5646 5642 5639 5635 5632 5627 5621 5615 5609 5602 5595 5588 5580 5572 5564 5558 5552 5550 5550 5551 5552 5553 5554 5556 5557 5559 5559 5560 5561 5562 5562 5560 5560 5560 5559 5557 5556 5556 5558 5558 5557 5556 5557 5557 5554 5555 5559 5560 5564 5568 5573 5579 5583
5639 5636 5633 5629 5625 5621 5615 5609 5603 5596 5588 5580 5572 5563 5554 5548 5543 5540 5537 5539 5540 5542 5544 5547 5549 5551 5554 5554 5555 5555 5558 5559 5558 5558 5559 5558 5557 5555 5553 5556 5558 5559 5556 5557 5559 5559 5559 5560 5563 5566 5570 5572 5576 5581
5630 5627 5624 5620 5615 5610 5604 5597 5590 5582 5574 5564 5554 5546 5538 5533 5529 5526 5525 5525 5527 5531 5534 5538 5542 5545 5548 5549 5550 5551 5553 5554 5555 5556 5556 5556 5555 5555 5553 5553 5556 5556 5557 5556 5558 5561 5561 5563 5564 5565 5569 5572 5575 5579
5621 5618 5614 5610 5605 5599 5592 5584 5576 5568 5558 5549 5540 5531 5525 5518 5513 5511 5509 5510 5512 5518 5523 5528 5533 5537 5539 5541 5543 5545 5549 5550 5552 5551 5552 5553 5553 5554 5553 5552 5553 5555 5555 5557 5557 5559 5562 5564 5566 5568 5569 5572 5575 5578
5612 5608 5604 5599 5594 5587 5579 5572 5563 5554 5543 5533 5524 5516 5507 5500 5495 5491 5490 5494 5499 5506 5511 5517 5523 5527 5530 5533 5537 5539 5542 5544 5546 5547 5548 5549 5551 5551 5552 5552 5551 5552 5555 5555 5556 5556 5558 5561 5564 5566 5569 5571 5574 5577
5603 5599 5593 5588 5583 5575 5567 5559 5549 5539 5528 5519 5509 5498 5487 5478 5473 5471 5472 5475 5483 5491 5499 5505 5510 5517 5522 5526 5530 5531 5534 5537 5539 5542 5543 5546 5548 5549 5549 5550 5550 5551 5552 5553 5554 5555 5554 5555 5557 5560 5564 5567 5571 5575
5593 5589 5583 5578 5571 5565 5557 5548 5537 5526 5516 5506 5493 5482 5471 5463 5457 5456 5458 5462 5467 5476 5485 5491 5498 5507 5512 5515 5517 5521 5525 5530 5534 5538 5540 5543 5544 5545 5547 5548 5549 5550 5550 5552 5553 5553 5554 5555 5556 5557 5559 5562 5566 5570
5583 5578 5573 5567 5560 5554 5546 5537 5527 5518 5508 5496 5483 5471 5463 5457 5452 5450 5451 5455 5461 5468 5475 5483 5489 5496 5501 5505 5509 5513 5518 5522 5524 5528 5533 5537 5540 5542 5543 5545 5547 5548 5549 5551 5551 5552 5553 5553 5554 5555 5557 5558 5562 5566
5573 5568 5562 5557 5550 5542 5534 5526 5518 5511 5500 5489 5478 5470 5464 5457 5453 5452 5454 5457 5462 5467 5472 5476 5481 5487 5491 5497 5502 5506 5511 5516 5519 5522 5527 5531 5534 5537 5539 5540 5543 5545 5546 5547 5548 5549 5549 5549 5551 5554 5555 5555 5558 5562
5562 5557 5552 5545 5539 5532 5526 5519 5513 5504 5494 5485 5479 5472 5467 5463 5460 5459 5460 5463 5466 5468 5470 5474 5479 5483 5487 5491 5496 5500 5505 5510 5514 5517 5521 5525 5529 5532 5535 5537 5538 5540 5543 5543 5545 5546 5547 5548 5547 5547 5548 5552 5555 5557
5552 5547 5542 5537 5531 5525 5522 5515 5509 5501 5493 5487 5482 5478 5474 5471 5469 5467 5467 5467 5470 5470 5471 5473 5476 5480 5484 5488 5491 5495 5499 5503 5507 5511 5514 5518 5522 5525 5529 5532 5535 5537 5538 5539 5540 5542 5544 5544 5545 5547 5548 5549 5551 5553
5541 5538 5533 5528 5523 5520 5515 5511 5505 5498 5494 5491 5487 5484 5481 5479 5476 5474 5474 5474 5473 5472 5472 5473 5475 5477 5480 5482 5485 5488 5492 5496 5500 5504 5507 5511 5515 5518 5522 5525 5528 5531 5533 5534 5536 5537 5541 5543 5544 5545 5546 5548 5549 5550
5534 5530 5526 5522 5518 5515 5512 5507 5502 5497 5495 5492 5490 5488 5486 5485 5483 5481 5479 5478 5476 5474 5474 5474 5473 5474 5476 5478 5480 5483 5486 5490 5493 5497 5501 5505 5508 5512 5515 5518 5522 5524 5527 5529 5531 5533 5535 5537 5539 5542 5543 5544 5545 5546
5524 5521 5519 5515 5512 5511 5508 5504 5500 5496 5495 5493 5492 5490 5488 5487 5486 5485 5483 5480 5478 5476 5475 5474 5474 5474 5474 5475 5476 5478 5480 5483 5486 5489 5493 5498 5501 5505 5508 5512 5515 5519 5521 5522 5525 5527 5529 5531 5532 5534 5536 5539 5540 5542
5514 5512 5510 5508 5507 5506 5504 5501 5497 5494 5492 5492 5491 5490 5488 5487 5486 5485 5483 5481 5479 5478 5476 5475 5474 5473 5473 5474 5473 5474 5475 5477 5479 5482 5486 5490 5494 5497 5500 5504 5508 5511 5514 5516 5519 5521 5523 5525 5527 5528 5529 5533 5534 5536
5505 5503 5503 5502 5501 5500 5498 5496 5494 5492 5489 5488 5487 5487 5486 5485 5484 5483 5482 5481 5479 5478 5476 5475 5474 5473 5472 5472 5471 5472 5472 5473 5474 5476 5479 5482 5486 5490 5493 5496 5499 5503 5506 5509 5511 5514 5516 5518 5521 5522 5524 5526 5528 5529
5495 5495 5495 5495 5494 5493 5492 5491 5490 5488 5486 5484 5483 5483 5483 5482 5481 5480 5479 5478 5477 5476 5475 5474 5473 5472 5471 5470 5470 5469 5469 5469 5470 5471 5473 5476 5479 5482 5485 5489 5492 5495 5498 5501 5504 5506 5509 5511 5514 5516 5518 5520 5520 5522
5486 5486 5487 5487 5487 5486 5485 5484 5483 5482 5481 5480 5479 5477 5477 5476 5476 5475 5475 5474 5474 5473 5472 5472 5471 5470 5469 5468 5467 5467 5466 5466 5466 5467 5469 5471 5472 5474 5477 5481 5484 5488 5491 5494 5496 5498 5501 5503 5506 5509 5510 5513 5513 5515
5476 5477 5478 5479 5479 5478 5478 5477 5476 5475 5475 5474 5473 5472 5471 5469 5469 5469 5468 5468 5467 5467 5466 5466 5465 5464 5464 5464 5463 5463 5463 5463 5462 5463 5463 5464 5466 5468 5470 5473 5476 5478 5480 5483 5485 5488 5492 5494 5497 5498 5500 5502 5503 5505
5467 5468 5469 5470 5471 5471 5470 5470 5470 5469 5469 5468 5467 5466 5466 5465 5465 5463 5461 5461 5460 5459 5458 5457 5456 5455 5455 5455 5455 5456 5456 5457 5457 5457 5458 5458 5459 5461 5463 5465 5466 5469 5471 5473 5477 5479 5482 5484 5486 5489 5491 5492 5493 5494
5458 5459 5460 5461 5461 5461 5462 5462 5462 5462 5462 5461 5461 5460 5459 5458 5458 5458 5457 5456 5455 5454 5453 5451 5450 5449 5448 5448 5448 5448 5449 5449 5450 5451 5452 5452 5453 5454 5455 5457 5459 5461 5463 5466 5467 5468 5469 5472 5475 5478 5480 5481 5482 5483